TimeMDT,TemperatureF,Dew PointF,Humidity,Sea Level PressureIn,VisibilityMPH,Wind Direction,Wind SpeedMPH,Gust SpeedMPH,PrecipitationIn,Events,Conditions,WindDirDegrees,DateUTC
12:53 AM,55.0,51.1,86,29.79,10.0,West,6.9,-,0.00,Rain,Light Rain,270,2013-05-17 06:53:00
1:53 AM,55.0,51.1,86,29.77,10.0,NW,6.9,-,0.01,Rain,Light Rain,310,2013-05-17 07:53:00
2:53 AM,54.0,51.1,90,29.77,10.0,NW,10.4,-,0.00,,Overcast,310,2013-05-17 08:53:00
3:53 AM,54.0,50.0,86,29.80,10.0,WNW,8.1,-,0.00,Rain,Light Rain,300,2013-05-17 09:53:00
4:53 AM,53.1,51.1,93,29.79,10.0,NW,5.8,-,0.04,,Overcast,310,2013-05-17 10:53:00
6:53 AM,53.1,51.1,93,29.79,10.0,West,5.8,-,N/A,,Clear,280,2013-05-17 12:53:00
7:53 AM,55.0,50.0,83,29.79,10.0,WNW,4.6,-,N/A,,Scattered Clouds,290,2013-05-17 13:53:00
8:53 AM,57.0,50.0,77,29.79,10.0,Calm,Calm,-,N/A,,Partly Cloudy,0,2013-05-17 14:53:00
9:53 AM,60.1,50.0,69,29.78,10.0,Variable,4.6,-,N/A,,Clear,0,2013-05-17 15:53:00
10:53 AM,63.0,48.9,60,29.78,10.0,WNW,3.5,-,N/A,,Clear,290,2013-05-17 16:53:00
11:53 AM,66.9,48.9,52,29.74,10.0,Variable,4.6,-,N/A,,Partly Cloudy,0,2013-05-17 17:53:00
1:53 PM,68.0,46.0,45,29.71,10.0,NW,20.7,-,N/A,,Clear,310,2013-05-17 19:53:00
2:53 PM,66.9,45.0,45,29.67,10.0,North,17.3,-,N/A,,Clear,360,2013-05-17 20:53:00
3:49 PM,62.6,48.2,59,29.80,10.0,West,35.7,42.6,0.00,Rain-Thunderstorm,Light Rain,270,2013-05-17 21:49:00
3:53 PM,60.1,51.1,72,29.76,9.0,West,29.9,42.6,0.00,Rain-Thunderstorm,Light Rain,270,2013-05-17 21:53:00
4:04 PM,57.2,51.8,82,29.81,4.0,West,26.5,34.5,0.02,Rain,Rain,280,2013-05-17 22:04:00
4:26 PM,55.4,53.6,94,29.79,5.0,NNW,21.9,-,0.08,Rain-Thunderstorm,Light Rain,330,2013-05-17 22:26:00
4:41 PM,57.2,53.6,88,29.75,8.0,NNW,17.3,39.1,0.09,Rain,Light Rain,340,2013-05-17 22:41:00
4:53 PM,60.1,54.0,80,29.78,10.0,NNW,17.3,-,0.09,,Scattered Clouds,330,2013-05-17 22:53:00
5:07 PM,60.8,53.6,77,29.83,10.0,NNW,18.4,-,N/A,,Partly Cloudy,330,2013-05-17 23:07:00
5:53 PM,60.1,52.0,75,29.78,10.0,NNW,16.1,25.3,N/A,,Mostly Cloudy,330,2013-05-17 23:53:00
6:53 PM,62.1,50.0,65,29.74,10.0,NNW,9.2,-,N/A,,Partly Cloudy,340,2013-05-18 00:53:00
7:53 PM,59.0,48.9,69,29.78,10.0,West,5.8,-,N/A,,Clear,280,2013-05-18 01:53:00
8:53 PM,57.0,51.1,81,29.83,10.0,WSW,10.4,-,N/A,,Clear,250,2013-05-18 02:53:00
9:53 PM,55.9,51.1,84,29.81,10.0,NNW,4.6,-,N/A,,Mostly Cloudy,330,2013-05-18 03:53:00
10:53 PM,54.0,50.0,86,29.81,10.0,Calm,Calm,-,N/A,,Clear,0,2013-05-18 04:53:00
11:53 PM,52.0,48.9,89,29.80,10.0,NW,3.5,-,N/A,,Clear,310,2013-05-18 05:53:00